EW8108 Weather Reports


Display with metric or nautical units.
time (UTC)temp
F
wind
direction
speed
MPH
gust
MPH
rain 1hr
in
rain 24hr
in
rain mn
in
humidity
%
barometer
mb
20260510202456 91 234 0.0 6.0 0.00 0.00 0.00 52 974.0
20260510201456 91 266 0.0 2.0 0.00 0.00 0.00 51 974.0
20260510200435 91 175 0.0 2.0 0.00 0.00 0.00 54 974.1
20260510195452 91 234 0.0 0.0 0.00 0.00 0.00 55 974.0
20260510194430 90 232 0.0 5.0 0.00 0.00 0.00 54 974.1
20260510191156 90 273 0.0 2.0 0.00 0.00 0.00 54 974.3
20260510190141 89 273 0.0 4.0 0.00 0.00 0.00 54 974.4
20260510185200 89 238 0.0 4.0 0.00 0.00 0.00 57 974.5
20260510184214 89 173 0.0 5.0 0.00 0.00 0.00 56 974.5
20260510183200 88 230 0.0 5.0 0.00 0.00 0.00 56 974.5
20260510182206 88 250 0.0 2.0 0.00 0.00 0.00 55 974.5
20260510181142 87 140 0.0 1.0 0.00 0.00 0.00 57 974.4
20260510180128 87 132 0.0 2.0 0.00 0.00 0.00 58 974.6
20260510173946 86 348 0.0 4.0 0.00 0.00 0.00 59 974.9
20260510172938 86 248 0.0 5.0 0.00 0.00 0.00 59 975.0
20260510170825 87 244 0.0 2.0 0.00 0.00 0.00 59 975.5
20260510165757 86 186 0.0 0.0 0.00 0.00 0.00 59 975.5
20260510162451 86 191 0.0 1.0 0.00 0.00 0.00 59 975.5
20260510160404 84 191 0.0 0.0 0.00 0.00 0.00 59 975.5
20260510155427 83 192 0.0 0.0 0.00 0.00 0.00 59 975.6
20260510154419 84 192 0.0 0.0 0.00 0.00 0.00 59 975.5
20260510153424 83 192 0.0 0.0 0.00 0.00 0.00 59 975.5
20260510152444 83 192 0.0 0.0 0.00 0.00 0.00 58 975.4
20260510151428 82 192 0.0 0.0 0.00 0.00 0.00 58 975.4
20260510150453 80 192 0.0 0.0 0.00 0.00 0.00 56 975.3
20260510145430 79 192 0.0 0.0 0.00 0.00 0.00 56 975.3
20260510144449 79 190 0.0 1.0 0.00 0.00 0.00 53 975.3
20260510143509 78 190 0.0 0.0 0.00 0.00 0.00 50 975.2
20260510142507 77 190 0.0 0.0 0.00 0.00 0.00 45 975.1
20260510141527 77 190 0.0 0.0 0.00 0.00 0.00 30 975.0
20260510140543 77 190 0.0 0.0 0.00 0.00 0.00 8 975.0
20260510135606 76 190 0.0 0.0 0.00 0.00 0.00 1 974.8
20260510134605 75 190 0.0 0.0 0.00 0.00 0.00 1 974.7
20260510133617 74 190 0.0 0.0 0.00 0.00 0.00 1 974.5
20260510132640 73 190 0.0 0.0 0.00 0.00 0.00 1 974.3
20260510131609 72 190 0.0 0.0 0.00 0.00 0.00 1 974.2
20260510130549 71 190 0.0 0.0 0.00 0.00 0.00 1 974.1
20260510125559 70 190 0.0 0.0 0.00 0.00 0.00 1 973.8
20260510123446 69 190 0.0 0.0 0.00 0.00 0.00 1 973.6
20260510122504 69 190 0.0 0.0 0.00 0.00 0.00 1 973.3
20260510121528 69 190 0.0 0.0 0.00 0.00 0.00 1 973.1
20260510115405 69 190 0.0 0.0 0.00 0.00 0.00 1 973.0
20260510113240 70 190 0.0 0.0 0.00 0.00 0.00 1 972.8
20260510112244 70 190 0.0 0.0 0.00 0.00 0.00 1 972.7
20260510111301 70 190 0.0 0.0 0.00 0.00 0.00 1 972.8
20260510110302 71 190 0.0 0.0 0.00 0.00 0.00 1 972.8
20260510105318 71 190 0.0 0.0 0.00 0.00 0.00 1 972.7
20260510104255 71 190 0.0 0.0 0.00 0.00 0.00 1 972.6
20260510103316 71 190 0.0 2.0 0.00 0.00 0.00 1 972.4
20260510102257 71 186 0.0 0.0 0.00 0.00 0.00 1 972.4
20260510101247 71 186 0.0 0.0 0.00 0.00 0.00 1 972.2
20260510100226 71 186 0.0 0.0 0.00 0.00 0.00 1 972.0
20260510095250 71 186 0.0 0.0 0.00 0.00 0.00 1 972.1
20260510094225 71 186 0.0 0.0 0.00 0.00 0.00 1 972.2
20260510093158 71 186 0.0 0.0 0.00 0.00 0.00 1 972.0
20260510092155 71 186 0.0 0.0 0.00 0.00 0.00 1 972.1
20260510090004 71 183 0.0 0.0 0.00 0.00 0.00 1 971.9
20260510084935 71 183 0.0 0.0 0.00 0.00 0.00 1 971.9
20260510083908 71 183 0.0 0.0 0.00 0.00 0.00 1 972.2
20260510082854 71 183 0.0 0.0 0.00 0.00 0.00 1 972.2
20260510081828 71 183 0.0 0.0 0.00 0.00 0.00 1 972.1
20260510080815 71 183 0.0 0.0 0.00 0.00 0.00 1 972.3
20260510075742 71 183 0.0 0.0 0.00 0.00 0.00 1 972.4
20260510074709 71 183 0.0 0.0 0.00 0.00 0.00 1 972.5
20260510073712 71 183 0.0 0.0 0.00 0.00 0.00 1 972.6
20260510072654 71 183 0.0 0.0 0.00 0.00 0.00 1 972.5
20260510071702 71 183 0.0 0.0 0.00 0.00 0.00 1 972.4
20260510065544 71 182 0.0 0.0 0.00 0.00 0.00 7 972.3
20260510064522 71 181 0.0 0.0 0.00 0.00 0.00 9 972.4
20260510063532 71 182 0.0 0.0 0.00 0.00 0.00 14 972.4
20260510061429 72 182 0.0 0.0 0.00 0.00 0.00 29 972.4
20260510060445 72 182 0.0 0.0 0.00 0.00 0.00 32 972.3
20260510055434 72 180 0.0 0.0 0.00 0.00 0.00 30 972.1
20260510054406 72 180 0.0 0.0 0.00 0.00 0.00 29 972.2
20260510053421 73 180 0.0 0.0 0.00 0.00 0.00 18 972.2
20260510051309 73 180 0.0 0.0 0.00 0.00 0.00 1 972.3
20260510050326 73 180 0.0 0.0 0.00 0.00 0.00 1 972.2
20260510045348 73 180 0.0 0.0 0.00 0.00 0.00 1 972.2
20260510043210 74 180 0.0 0.0 0.00 0.00 0.00 1 972.1
20260510042219 74 180 0.0 0.0 0.00 0.00 0.00 1 972.2
20260510041148 74 180 0.0 0.0 0.00 0.00 0.00 1 972.1
20260510040205 75 180 0.0 0.0 0.00 0.00 0.00 2 972.1
20260510035145 75 180 0.0 0.0 0.00 0.00 0.00 2 972.0
20260510034119 75 180 0.0 0.0 0.00 0.00 0.00 2 972.0
20260510033058 75 180 0.0 0.0 0.00 0.00 0.00 4 971.9
20260510032029 76 180 0.0 0.0 0.00 0.00 0.00 11 971.8
20260510031046 76 180 0.0 0.0 0.00 0.00 0.00 11 971.8
20260510030107 75 180 0.0 0.0 0.00 0.00 0.00 14 971.6
20260510025108 75 180 0.0 0.0 0.00 0.00 0.00 23 971.5
20260510024101 75 180 0.0 0.0 0.00 0.00 0.00 30 971.3
20260510021902 76 180 0.0 0.0 0.00 0.00 0.00 50 971.0
20260510020918 76 180 0.0 0.0 0.00 0.00 0.00 55 970.9
20260510015846 77 180 0.0 0.0 0.00 0.00 0.00 60 970.7
20260510014853 78 180 0.0 0.0 0.00 0.00 0.00 62 970.7
20260510013821 79 180 0.0 0.0 0.00 0.00 0.00 62 970.6
20260510011624 81 180 0.0 0.0 0.00 0.00 0.00 61 970.5
20260510010630 82 180 0.0 0.0 0.00 0.00 0.00 59 970.3
20260510005618 83 180 0.0 0.0 0.00 0.00 0.00 57 970.3
20260510002251 85 180 0.0 0.0 0.00 0.00 0.00 54 969.9
20260510000128 87 180 0.0 0.0 0.00 0.00 0.00 51 969.8
20260509235119 88 180 0.0 0.0 0.00 0.00 0.00 49 969.7
20260509233026 90 180 0.0 0.0 0.00 0.00 0.00 46 969.7
20260509232047 91 180 0.0 0.0 0.00 0.00 0.00 45 969.6
20260509231052 92 180 0.0 0.0 0.00 0.00 0.00 44 969.6
20260509230046 92 180 0.0 0.0 0.00 0.00 0.00 43 969.5
20260509225023 92 180 0.0 0.0 0.00 0.00 0.00 44 969.6
20260509224024 93 178 0.0 3.0 0.00 0.00 0.00 43 969.5
20260509221919 93 175 0.0 1.0 0.00 0.00 0.00 46 969.5
20260509214742 91 175 0.0 2.0 0.00 0.00 0.00 48 969.7
20260509213746 91 173 0.0 2.0 0.00 0.00 0.00 50 969.8
20260509212722 91 173 0.0 0.0 0.00 0.00 0.00 50 970.0
20260509211744 90 173 0.0 0.0 0.00 0.00 0.00 52 970.0
20260509210736 90 173 0.0 3.0 0.00 0.00 0.00 49 970.1
20260509204618 89 196 0.0 2.0 0.00 0.00 0.00 53 970.3
20260509203630 89 199 0.0 2.0 0.00 0.00 0.00 48 970.5